,,Stat6,,Stat2,,Stat8,,Stat9,,Stat10,,Wind1,,Wind1,
time,status,PA1M_AVG,status,PR1M_SUM,status,RH1M_AVG,status,SR1M_AVG,status,TA1M_AVG,status,W1dAve1m,status,W1sAve1m,
2007-03-11, 00:00:00,VALID,917.37,VALID,0,VALID,95.2839,VALID,52.267,VALID,19.2281,VALID,139,VALID,1.9375,
2007-03-11, 00:01:00,VALID,917.35,VALID,0,VALID,95.0486,VALID,42.3332,VALID,19.2696,VALID,147,VALID,1.95132,
2007-03-11, 00:02:00,VALID,917.35,VALID,0,VALID,94.8197,VALID,58.5499,VALID,19.319,VALID,131,VALID,2.34793,
2007-03-11, 00:03:00,VALID,917.319,VALID,0,VALID,94.6964,VALID,47.6992,VALID,19.3447,VALID,138,VALID,2.51128,
2007-03-11, 00:04:00,VALID,917.303,VALID,0,VALID,94.5463,VALID,58.0744,VALID,19.3642,VALID,132,VALID,2.90835,
2007-03-11, 00:05:00,VALID,917.276,VALID,0,VALID,94.1979,VALID,80.0986,VALID,19.4263,VALID,131,VALID,3.09132,
2007-03-11, 00:06:00,VALID,917.249,VALID,0,VALID,93.894,VALID,77.4496,VALID,19.4844,VALID,133,VALID,2.62863,
2007-03-11, 00:07:00,VALID,917.244,VALID,0,VALID,93.5341,VALID,48.6161,VALID,19.5436,VALID,139,VALID,2.18677,
2007-03-11, 00:08:00,VALID,917.257,VALID,0,VALID,93.215,VALID,46.7143,VALID,19.592,VALID,130,VALID,2.10603,
2007-03-11, 00:09:00,VALID,917.26,VALID,0,VALID,93.1145,VALID,47.9199,VALID,19.6177,VALID,123,VALID,2.51637,
2007-03-11, 00:10:00,VALID,917.28,VALID,0,VALID,93.0891,VALID,48.0388,VALID,19.6239,VALID,137,VALID,2.54111,
2007-03-11, 00:11:00,VALID,917.281,VALID,0,VALID,93.262,VALID,50.9934,VALID,19.6077,VALID,130,VALID,2.42134,
2007-03-11, 00:12:00,VALID,917.278,VALID,0,VALID,93.3561,VALID,52.3519,VALID,19.585,VALID,135,VALID,2.27998,
2007-03-11, 00:13:00,VALID,917.267,VALID,0,VALID,93.3269,VALID,63.0838,VALID,19.585,VALID,133,VALID,2.40011,
2007-03-11, 00:14:00,VALID,917.27,VALID,0,VALID,93.2302,VALID,53.6255,VALID,19.6052,VALID,140,VALID,2.3234,
2007-03-11, 00:15:00,VALID,917.277,VALID,0,VALID,93.0916,VALID,87.5532,VALID,19.6244,VALID,136,VALID,2.23574,
2007-03-11, 00:16:00,VALID,917.282,VALID,0,VALID,92.9772,VALID,62.6253,VALID,19.6594,VALID,130,VALID,1.88725,
2007-03-11, 00:17:00,VALID,917.32,VALID,0,VALID,93.0789,VALID,59.4329,VALID,19.6758,VALID,120,VALID,1.71042,
2007-03-11, 00:18:00,VALID,917.366,VALID,0,VALID,93.0217,VALID,84.5136,VALID,19.6694,VALID,144,VALID,2.32422,
2007-03-11, 00:19:00,VALID,917.385,VALID,0,VALID,93.0204,VALID,82.8495,VALID,19.6888,VALID,155,VALID,2.06163,
2007-03-11, 00:20:00,VALID,917.38,VALID,0,VALID,92.5868,VALID,72.1516,VALID,19.7083,VALID,168,VALID,2.14517,
2007-03-11, 00:21:00,VALID,917.418,VALID,0,VALID,92.274,VALID,92.8342,VALID,19.7704,VALID,136,VALID,2.02158,
2007-03-11, 00:22:00,VALID,917.441,VALID,0,VALID,92.0311,VALID,96.3153,VALID,19.8418,VALID,132,VALID,1.97402,
2007-03-11, 00:23:00,VALID,917.462,VALID,0,VALID,91.7742,VALID,77.7552,VALID,19.8835,VALID,132,VALID,2.38681,
2007-03-11, 00:24:00,VALID,917.471,VALID,0,VALID,91.5415,VALID,75.7005,VALID,19.9327,VALID,131,VALID,2.56123,
2007-03-11, 00:25:00,VALID,917.483,VALID,0,VALID,91.5365,VALID,96.2134,VALID,19.9714,VALID,125,VALID,1.96475,
2007-03-11, 00:26:00,VALID,917.481,VALID,0,VALID,91.3394,VALID,94.6002,VALID,20.0135,VALID,131,VALID,1.94436,
2007-03-11, 00:27:00,VALID,917.486,VALID,0,VALID,90.8205,VALID,168.484,VALID,20.0812,VALID,138,VALID,2.95621,
2007-03-11, 00:28:00,VALID,917.489,VALID,0,VALID,90.0436,VALID,148.463,VALID,20.2047,VALID,143,VALID,2.44252,
2007-03-11, 00:29:00,VALID,917.504,VALID,0,VALID,89.643,VALID,107.285,VALID,20.335,VALID,143,VALID,2.14596,
2007-03-11, 00:30:00,VALID,917.523,VALID,0,VALID,89.418,VALID,189.472,VALID,20.4262,VALID,131,VALID,2.18262,
2007-03-11, 00:31:00,VALID,917.525,VALID,0,VALID,89.2399,VALID,210.647,VALID,20.5105,VALID,134,VALID,2.25994,
2007-03-11, 00:32:00,VALID,917.52,VALID,0,VALID,88.6054,VALID,213.924,VALID,20.5879,VALID,137,VALID,2.06765,
2007-03-11, 00:33:00,VALID,917.542,VALID,0,VALID,88.4058,VALID,224.028,VALID,20.728,VALID,120,VALID,2.06523,
2007-03-11, 00:34:00,VALID,917.57,VALID,0,VALID,88.7084,VALID,231.839,VALID,20.8673,VALID,117,VALID,1.22292,
2007-03-11, 00:35:00,VALID,917.576,VALID,0,VALID,88.6029,VALID,237.579,VALID,21.0033,VALID,109,VALID,1.50167,
2007-03-11, 00:36:00,VALID,917.591,VALID,0,VALID,88.009,VALID,220.055,VALID,21.1142,VALID,133,VALID,2.08371,
2007-03-11, 00:37:00,VALID,917.591,VALID,0,VALID,86.3063,VALID,136.373,VALID,21.1597,VALID,139,VALID,2.25816,
2007-03-11, 00:38:00,VALID,917.607,VALID,0,VALID,85.6057,VALID,210.24,VALID,21.2019,VALID,140,VALID,2.11849,
2007-03-11, 00:39:00,VALID,917.635,VALID,0,VALID,85.9198,VALID,245.594,VALID,21.2955,VALID,125,VALID,2.01973,
2007-03-11, 00:40:00,VALID,917.647,VALID,0,VALID,85.9312,VALID,246.256,VALID,21.3609,VALID,126,VALID,2.09054,
2007-03-11, 00:41:00,VALID,917.648,VALID,0,VALID,85.8715,VALID,243.573,VALID,21.3934,VALID,135,VALID,2.45703,
2007-03-11, 00:42:00,VALID,917.643,VALID,0,VALID,85.6248,VALID,225.964,VALID,21.4131,VALID,140,VALID,1.94277,
2007-03-11, 00:43:00,VALID,917.651,VALID,0,VALID,85.9757,VALID,242.384,VALID,21.4521,VALID,128,VALID,2.56027,
2007-03-11, 00:44:00,VALID,917.678,VALID,0,VALID,85.5485,VALID,254.882,VALID,21.471,VALID,114,VALID,2.42461,
2007-03-11, 00:45:00,VALID,917.704,VALID,0,VALID,84.7321,VALID,255.884,VALID,21.5395,VALID,115,VALID,2.36115,
2007-03-11, 00:46:00,VALID,917.729,VALID,0,VALID,84.727,VALID,260.69,VALID,21.6336,VALID,109,VALID,1.84464,
2007-03-11, 00:47:00,VALID,917.783,VALID,0,VALID,83.7644,VALID,268.467,VALID,21.718,VALID,132,VALID,2.34583,
2007-03-11, 00:48:00,VALID,917.811,VALID,0,VALID,84.39,VALID,271.065,VALID,21.7895,VALID,121,VALID,1.87084,
2007-03-11, 00:49:00,VALID,917.835,VALID,0,VALID,84.5871,VALID,274.699,VALID,21.8739,VALID,127,VALID,1.65276,
2007-03-11, 00:50:00,VALID,917.862,VALID,0,VALID,83.7288,VALID,287.672,VALID,21.9226,VALID,148,VALID,1.81319,
2007-03-11, 00:51:00,VALID,917.869,VALID,0,VALID,84.1955,VALID,296.485,VALID,22.0338,VALID,106,VALID,1.47656,
2007-03-11, 00:52:00,VALID,917.88,VALID,0,VALID,83.3982,VALID,283.087,VALID,22.105,VALID,97,VALID,1.98958,
2007-03-11, 00:53:00,VALID,917.899,VALID,0,VALID,83.0409,VALID,280.727,VALID,22.1179,VALID,137,VALID,2.18999,
2007-03-11, 00:54:00,VALID,917.908,VALID,0,VALID,82.7433,VALID,186.636,VALID,22.1082,VALID,151,VALID,1.77344,
2007-03-11, 00:55:00,VALID,917.935,VALID,0,VALID,82.311,VALID,256.784,VALID,22.0795,VALID,145,VALID,1.9403,
2007-03-11, 00:56:00,VALID,917.98,VALID,0,VALID,82.5398,VALID,250.416,VALID,22.0795,VALID,150,VALID,2.03497,
2007-03-11, 00:57:00,VALID,918.006,VALID,0,VALID,82.1736,VALID,303.244,VALID,22.0527,VALID,148,VALID,2.38262,
2007-03-11, 00:58:00,VALID,918.039,VALID,0,VALID,82.2754,VALID,308.932,VALID,22.0543,VALID,152,VALID,2.37444,
2007-03-11, 00:59:00,VALID,918.057,VALID,0,VALID,82.4012,VALID,325.658,VALID,22.0622,VALID,149,VALID,2.04297,
2007-03-11, 01:00:00,VALID,918.088,VALID,0,VALID,82.2016,VALID,178.367,VALID,22.0876,VALID,148,VALID,2.02289,
2007-03-11, 01:01:00,VALID,918.091,VALID,0,VALID,82.5004,VALID,119.953,VALID,22.0587,VALID,143,VALID,2.03255,
2007-03-11, 01:02:00,VALID,918.085,VALID,0,VALID,83.3639,VALID,108.728,VALID,22.0254,VALID,142,VALID,1.76108,
2007-03-11, 01:03:00,VALID,918.061,VALID,0,VALID,83.4529,VALID,135.898,VALID,21.9613,VALID,125,VALID,2.13148,
2007-03-11, 01:04:00,VALID,918.074,VALID,0,VALID,84.0213,VALID,351.062,VALID,21.9367,VALID,127,VALID,1.98884,
2007-03-11, 01:05:00,VALID,918.085,VALID,0,VALID,84.4778,VALID,354.373,VALID,21.9951,VALID,127,VALID,1.58556,
2007-03-11, 01:06:00,VALID,918.118,VALID,0,VALID,83.4007,VALID,360.299,VALID,22.0671,VALID,137,VALID,2.43114,
2007-03-11, 01:07:00,VALID,918.128,VALID,0,VALID,83.0612,VALID,357.548,VALID,22.135,VALID,129,VALID,2.47535,
2007-03-11, 01:08:00,VALID,918.151,VALID,0,VALID,83.7758,VALID,243.59,VALID,22.2162,VALID,134,VALID,1.80831,
2007-03-11, 01:09:00,VALID,918.184,VALID,0,VALID,82.0134,VALID,311.751,VALID,22.2259,VALID,139,VALID,2.40252,
2007-03-11, 01:10:00,VALID,918.206,VALID,0,VALID,82.3377,VALID,325.302,VALID,22.2717,VALID,131,VALID,1.32177,
2007-03-11, 01:11:00,VALID,918.22,VALID,0,VALID,83.3066,VALID,257.192,VALID,22.3851,VALID,96,VALID,1.72768,
2007-03-11, 01:12:00,VALID,918.216,VALID,0,VALID,83.5991,VALID,302.276,VALID,22.3969,VALID,109,VALID,1.81155,
2007-03-11, 01:13:00,VALID,918.232,VALID,0,VALID,83.9221,VALID,276.872,VALID,22.4129,VALID,119,VALID,1.96551,
2007-03-11, 01:14:00,VALID,918.252,VALID,0,VALID,81.9282,VALID,217.015,VALID,22.3122,VALID,135,VALID,2.4613,
2007-03-11, 01:15:00,VALID,918.275,VALID,0,VALID,82.8883,VALID,343.93,VALID,22.2667,VALID,93,VALID,1.49423,
2007-03-11, 01:16:00,VALID,918.305,VALID,0,VALID,82.5348,VALID,238.003,VALID,22.2697,VALID,120,VALID,2.50469,
2007-03-11, 01:17:00,VALID,918.317,VALID,0,VALID,83.4758,VALID,280.455,VALID,22.2178,VALID,138,VALID,2.34889,
2007-03-11, 01:18:00,VALID,918.329,VALID,0,VALID,83.7975,VALID,353.456,VALID,22.2083,VALID,144,VALID,1.53544,
2007-03-11, 01:19:00,VALID,918.33,VALID,0,VALID,83.8254,VALID,392.919,VALID,22.2667,VALID,123,VALID,1.64271,
2007-03-11, 01:20:00,VALID,918.316,VALID,0,VALID,83.0587,VALID,414.893,VALID,22.3547,VALID,144,VALID,1.79222,
2007-03-11, 01:21:00,VALID,918.298,VALID,0,VALID,82.1215,VALID,167.142,VALID,22.4043,VALID,136,VALID,1.74474,
2007-03-11, 01:22:00,VALID,918.266,VALID,0,VALID,82.4356,VALID,181.101,VALID,22.3966,VALID,117,VALID,1.78754,
2007-03-11, 01:23:00,VALID,918.269,VALID,0,VALID,83.5813,VALID,125.081,VALID,22.4064,VALID,135,VALID,1.41584,
2007-03-11, 01:24:00,VALID,918.266,VALID,0,VALID,83.1222,VALID,149.72,VALID,22.3544,VALID,144,VALID,1.59775,
2007-03-11, 01:25:00,VALID,918.261,VALID,0,VALID,83.4974,VALID,353.49,VALID,22.3217,VALID,120,VALID,1.63467,
2007-03-11, 01:26:00,VALID,918.257,VALID,0,VALID,83.8407,VALID,368.399,VALID,22.3482,VALID,109,VALID,1.65476,
2007-03-11, 01:27:00,VALID,918.25,VALID,0,VALID,83.6538,VALID,392.852,VALID,22.4161,VALID,119,VALID,1.68397,
2007-03-11, 01:28:00,VALID,918.261,VALID,0,VALID,84.5846,VALID,315.776,VALID,22.4976,VALID,135,VALID,1.53982,
2007-03-11, 01:29:00,VALID,918.267,VALID,0,VALID,84.549,VALID,464.528,VALID,22.6045,VALID,136,VALID,2.23473,
2007-03-11, 01:30:00,VALID,918.286,VALID,0,VALID,82.8768,VALID,360.248,VALID,22.6307,VALID,132,VALID,2.65584,
2007-03-11, 01:31:00,VALID,918.293,VALID,0,VALID,82.2309,VALID,427.832,VALID,22.6272,VALID,130,VALID,2.8388,
2007-03-11, 01:32:00,VALID,918.311,VALID,0,VALID,82.8005,VALID,457.837,VALID,22.6535,VALID,133,VALID,1.95414,
2007-03-11, 01:33:00,VALID,918.326,VALID,0,VALID,81.6027,VALID,489.761,VALID,22.7282,VALID,124,VALID,2.65469,
2007-03-11, 01:34:00,VALID,918.35,VALID,0,VALID,81.6357,VALID,272.271,VALID,22.7282,VALID,104,VALID,2.35689,
2007-03-11, 01:35:00,VALID,918.358,VALID,0,VALID,81.9498,VALID,219.256,VALID,22.7379,VALID,85,VALID,2.57227,
2007-03-11, 01:36:00,VALID,918.382,VALID,0,VALID,81.2657,VALID,445.594,VALID,22.696,VALID,87,VALID,1.97656,
2007-03-11, 01:37:00,VALID,918.418,VALID,0,VALID,81.9257,VALID,251.639,VALID,22.7574,VALID,124,VALID,2.04482,
2007-03-11, 01:38:00,VALID,918.423,VALID,0,VALID,81.2555,VALID,170.437,VALID,22.6954,VALID,147,VALID,2.48552,
2007-03-11, 01:39:00,VALID,918.429,VALID,0,VALID,81.7375,VALID,144.099,VALID,22.6074,VALID,133,VALID,2.62072,
2007-03-11, 01:40:00,VALID,918.395,VALID,0,VALID,81.693,VALID,287.452,VALID,22.51,VALID,108,VALID,2.33519,
2007-03-11, 01:41:00,VALID,918.404,VALID,0,VALID,81.5683,VALID,479.742,VALID,22.5171,VALID,132,VALID,2.60618,
2007-03-11, 01:42:00,VALID,918.415,VALID,0,VALID,82.311,VALID,498.472,VALID,22.5888,VALID,147,VALID,2.90072,
2007-03-11, 01:43:00,VALID,918.423,VALID,0,VALID,82.7878,VALID,422.042,VALID,22.6898,VALID,129,VALID,2.20117,
2007-03-11, 01:44:00,VALID,918.419,VALID,0,VALID,81.7337,VALID,468.263,VALID,22.7411,VALID,109,VALID,2.67188,
2007-03-11, 01:45:00,VALID,918.432,VALID,0,VALID,81.5823,VALID,497.691,VALID,22.8155,VALID,122,VALID,2.65988,
2007-03-11, 01:46:00,VALID,918.441,VALID,0,VALID,81.2314,VALID,504.229,VALID,22.9192,VALID,123,VALID,2.01905,
2007-03-11, 01:47:00,VALID,918.441,VALID,0,VALID,81.7311,VALID,314.179,VALID,23.0951,VALID,125,VALID,1.37129,
2007-03-11, 01:48:00,VALID,918.443,VALID,0,VALID,80.2293,VALID,257.361,VALID,23.1769,VALID,134,VALID,2.49851,
2007-03-11, 01:49:00,VALID,918.423,VALID,0,VALID,79.9636,VALID,528.851,VALID,23.1078,VALID,110,VALID,2.15946,
2007-03-11, 01:50:00,VALID,918.412,VALID,0,VALID,80.12,VALID,292.393,VALID,23.1217,VALID,122,VALID,2.27567,
2007-03-11, 01:51:00,VALID,918.405,VALID,0,VALID,80.237,VALID,544.83,VALID,23.1309,VALID,154,VALID,2.47433,
2007-03-11, 01:52:00,VALID,918.38,VALID,0,VALID,79.8212,VALID,454.543,VALID,23.1406,VALID,155,VALID,2.83296,
2007-03-11, 01:53:00,VALID,918.374,VALID,0,VALID,80.4621,VALID,403.719,VALID,23.2127,VALID,153,VALID,1.98953,
2007-03-11, 01:54:00,VALID,918.387,VALID,0,VALID,79.4409,VALID,209.017,VALID,23.2218,VALID,155,VALID,1.99769,
2007-03-11, 01:55:00,VALID,918.42,VALID,0,VALID,79.5783,VALID,208.932,VALID,23.2215,VALID,142,VALID,2.26817,
2007-03-11, 01:56:00,VALID,918.464,VALID,0,VALID,80.0272,VALID,209.594,VALID,23.1831,VALID,129,VALID,1.81191,
2007-03-11, 01:57:00,VALID,918.492,VALID,0,VALID,80.0895,VALID,184.751,VALID,23.1084,VALID,149,VALID,1.62891,
2007-03-11, 01:58:00,VALID,918.499,VALID,0,VALID,80.1327,VALID,176.669,VALID,23.0373,VALID,135,VALID,2.64281,
2007-03-11, 01:59:00,VALID,918.502,VALID,0,VALID,80.9707,VALID,208.66,VALID,22.9236,VALID,147,VALID,2.37184,
2007-03-11, 02:00:00,VALID,918.493,VALID,0,VALID,80.5892,VALID,238.7,VALID,22.8194,VALID,146,VALID,2.12269,
2007-03-11, 02:01:00,VALID,918.498,VALID,0,VALID,81.8494,VALID,389.727,VALID,22.835,VALID,122,VALID,1.71639,
2007-03-11, 02:02:00,VALID,918.468,VALID,0,VALID,81.4196,VALID,551.249,VALID,22.933,VALID,155,VALID,2.08612,
2007-03-11, 02:03:00,VALID,918.448,VALID,0,VALID,81.239,VALID,575.837,VALID,23.0919,VALID,112,VALID,1.64729,
2007-03-11, 02:04:00,VALID,918.425,VALID,0,VALID,80.4112,VALID,559.586,VALID,23.3166,VALID,148,VALID,2.09468,
2007-03-11, 02:05:00,VALID,918.408,VALID,0,VALID,79.0328,VALID,565.088,VALID,23.505,VALID,160,VALID,1.87686,
2007-03-11, 02:06:00,VALID,918.406,VALID,0,VALID,78.5953,VALID,581.576,VALID,23.6385,VALID,154,VALID,2.00205,
2007-03-11, 02:07:00,VALID,918.4,VALID,0,VALID,78.0511,VALID,582.476,VALID,23.7808,VALID,148,VALID,2.39013,
2007-03-11, 02:08:00,VALID,918.406,VALID,0,VALID,77.6582,VALID,593.174,VALID,23.8228,VALID,150,VALID,2.13262,
2007-03-11, 02:09:00,VALID,918.406,VALID,0,VALID,77.6404,VALID,613.212,VALID,23.8204,VALID,126,VALID,2.86583,
2007-03-11, 02:10:00,VALID,918.438,VALID,0,VALID,78.0511,VALID,617.083,VALID,23.7779,VALID,145,VALID,3.36275,
2007-03-11, 02:11:00,VALID,918.456,VALID,0,VALID,79.1879,VALID,291.968,VALID,23.7918,VALID,124,VALID,1.73958,
2007-03-11, 02:12:00,VALID,918.467,VALID,0,VALID,78.2838,VALID,455.341,VALID,23.7749,VALID,150,VALID,2.31345,
2007-03-11, 02:13:00,VALID,918.488,VALID,0,VALID,78.8738,VALID,250.433,VALID,23.7687,VALID,117,VALID,1.64423,
2007-03-11, 02:14:00,VALID,918.509,VALID,0,VALID,77.9633,VALID,609.867,VALID,23.7983,VALID,139,VALID,2.35733,
2007-03-11, 02:15:00,VALID,918.506,VALID,0,VALID,78.4898,VALID,391.255,VALID,23.834,VALID,152,VALID,1.78584,
2007-03-11, 02:16:00,VALID,918.534,VALID,0,VALID,77.4814,VALID,599.95,VALID,23.8402,VALID,147,VALID,3.08092,
2007-03-11, 02:17:00,VALID,918.521,VALID,0,VALID,77.573,VALID,652.59,VALID,23.7723,VALID,157,VALID,2.51847,
2007-03-11, 02:18:00,VALID,918.549,VALID,0,VALID,78.2431,VALID,498.71,VALID,23.8535,VALID,150,VALID,1.83464,
2007-03-11, 02:19:00,VALID,918.552,VALID,0,VALID,78.2762,VALID,641.196,VALID,23.9087,VALID,135,VALID,3.1503,
2007-03-11, 02:20:00,VALID,918.562,VALID,0,VALID,77.8591,VALID,560.877,VALID,23.922,VALID,139,VALID,2.25347,
2007-03-11, 02:21:00,VALID,918.547,VALID,0,VALID,77.1165,VALID,299.508,VALID,23.925,VALID,110,VALID,2.78359,
2007-03-11, 02:22:00,VALID,918.497,VALID,0,VALID,76.7464,VALID,654.628,VALID,23.8048,VALID,70,VALID,3.34175,
2007-03-11, 02:23:00,VALID,918.538,VALID,0,VALID,78.6589,VALID,570.199,VALID,23.863,VALID,131,VALID,2.28853,
2007-03-11, 02:24:00,VALID,918.548,VALID,0,VALID,77.2258,VALID,604.28,VALID,23.9214,VALID,136,VALID,2.67914,
2007-03-11, 02:25:00,VALID,918.559,VALID,0,VALID,77.0554,VALID,508.865,VALID,23.9377,VALID,149,VALID,2.57664,
2007-03-11, 02:26:00,VALID,918.539,VALID,0,VALID,76.2492,VALID,699.372,VALID,23.9442,VALID,126,VALID,3.12483,
2007-03-11, 02:27:00,VALID,918.55,VALID,0,VALID,76.8838,VALID,594.839,VALID,23.9637,VALID,140,VALID,2.57522,
2007-03-11, 02:28:00,VALID,918.531,VALID,0,VALID,76.4196,VALID,642.062,VALID,24.0225,VALID,132,VALID,2.84702,
2007-03-11, 02:29:00,VALID,918.514,VALID,0,VALID,77.0376,VALID,600.17,VALID,24.0088,VALID,131,VALID,3.01172,
2007-03-11, 02:30:00,VALID,918.501,VALID,0,VALID,76.9155,VALID,673.324,VALID,24.0546,VALID,151,VALID,2.57594,
2007-03-11, 02:31:00,VALID,918.52,VALID,0,VALID,76.9766,VALID,242.86,VALID,24.1226,VALID,140,VALID,2.12873,
2007-03-11, 02:32:00,VALID,918.529,VALID,0,VALID,76.941,VALID,305.196,VALID,24.1199,VALID,109,VALID,2.24619,
2007-03-11, 02:33:00,VALID,918.527,VALID,0,VALID,77.0732,VALID,642.877,VALID,24.168,VALID,146,VALID,1.97002,
2007-03-11, 02:34:00,VALID,918.512,VALID,0,VALID,76.4209,VALID,722.025,VALID,24.2369,VALID,134,VALID,2.82031,
2007-03-11, 02:35:00,VALID,918.515,VALID,0,VALID,76.4514,VALID,703.669,VALID,24.3672,VALID,136,VALID,3.02734,
2007-03-11, 02:36:00,VALID,918.499,VALID,0,VALID,74.7106,VALID,667.686,VALID,24.3766,VALID,137,VALID,2.7351,
2007-03-11, 02:37:00,VALID,918.465,VALID,0,VALID,76.2505,VALID,678.945,VALID,24.3444,VALID,148,VALID,2.92097,
2007-03-11, 02:38:00,VALID,918.487,VALID,0,VALID,76.2899,VALID,685.601,VALID,24.4059,VALID,164,VALID,1.90376,
2007-03-11, 02:39:00,VALID,918.495,VALID,0,VALID,75.5664,VALID,727.934,VALID,24.6268,VALID,127,VALID,1.09654,
2007-03-11, 02:40:00,VALID,918.544,VALID,0,VALID,74.7742,VALID,728.817,VALID,24.8351,VALID,133,VALID,1.96538,
2007-03-11, 02:41:00,VALID,918.561,VALID,0,VALID,73.4186,VALID,607.285,VALID,24.8478,VALID,121,VALID,1.91172,
2007-03-11, 02:42:00,VALID,918.562,VALID,0,VALID,74.441,VALID,351.045,VALID,24.8156,VALID,90,VALID,2.43278,
2007-03-11, 02:43:00,VALID,918.543,VALID,0,VALID,75.0615,VALID,633.368,VALID,24.7636,VALID,62,VALID,2.69345,
2007-03-11, 02:44:00,VALID,918.541,VALID,0,VALID,74.0595,VALID,746.647,VALID,24.7896,VALID,141,VALID,1.57412,
2007-03-11, 02:45:00,VALID,918.526,VALID,0,VALID,73.7836,VALID,700.459,VALID,24.7997,VALID,136,VALID,3.2221,
2007-03-11, 02:46:00,VALID,918.511,VALID,0,VALID,74.8288,VALID,383.903,VALID,24.6576,VALID,116,VALID,2.40218,
2007-03-11, 02:47:00,VALID,918.51,VALID,0,VALID,74.2948,VALID,334.488,VALID,24.5306,VALID,153,VALID,2.10992,
2007-03-11, 02:48:00,VALID,918.501,VALID,0,VALID,75.8449,VALID,829.293,VALID,24.5439,VALID,119,VALID,1.76505,
2007-03-11, 02:49:00,VALID,918.483,VALID,0,VALID,75.5384,VALID,808.984,VALID,24.7327,VALID,91,VALID,1.36239,
2007-03-11, 02:50:00,VALID,918.486,VALID,0,VALID,73.7594,VALID,779.947,VALID,24.8296,VALID,159,VALID,2.21023,
2007-03-11, 02:51:00,VALID,918.474,VALID,0,VALID,73.8713,VALID,781.628,VALID,24.9202,VALID,148,VALID,1.84012,
2007-03-11, 02:52:00,VALID,918.483,VALID,0,VALID,72.5082,VALID,786.433,VALID,24.9599,VALID,145,VALID,2.19985,
2007-03-11, 02:53:00,VALID,918.463,VALID,0,VALID,72.5082,VALID,774.309,VALID,24.9206,VALID,137,VALID,2.82868,
2007-03-11, 02:54:00,VALID,918.471,VALID,0,VALID,73.1389,VALID,608.916,VALID,24.8487,VALID,130,VALID,1.78125,
2007-03-11, 02:55:00,VALID,918.462,VALID,0,VALID,73.6208,VALID,668.943,VALID,24.852,VALID,132,VALID,1.88154,
2007-03-11, 02:56:00,VALID,918.464,VALID,0,VALID,73.8993,VALID,770.607,VALID,24.9046,VALID,140,VALID,1.92552,
2007-03-11, 02:57:00,VALID,918.432,VALID,0,VALID,74.0926,VALID,779.471,VALID,24.9615,VALID,63,VALID,2.68452,
2007-03-11, 02:58:00,VALID,918.445,VALID,0,VALID,74.5555,VALID,791.358,VALID,25.0538,VALID,118,VALID,1.62843,
2007-03-11, 02:59:00,VALID,918.429,VALID,0,VALID,74.7818,VALID,795.45,VALID,25.3067,VALID,93,VALID,2.12176,
2007-03-11, 03:00:00,VALID,918.395,VALID,0,VALID,71.7923,VALID,790.509,VALID,25.3724,VALID,80,VALID,4.05145,
2007-03-11, 03:01:00,VALID,918.439,VALID,0,VALID,71.4171,VALID,661.132,VALID,25.2427,VALID,99,VALID,1.46185,
2007-03-11, 03:02:00,VALID,918.437,VALID,0,VALID,72.3429,VALID,776.092,VALID,25.2462,VALID,90,VALID,1.96007,
2007-03-11, 03:03:00,VALID,918.451,VALID,0,VALID,72.7294,VALID,789.711,VALID,25.2557,VALID,97,VALID,2.00056,
2007-03-11, 03:04:00,VALID,918.441,VALID,0,VALID,72.9659,VALID,822.874,VALID,25.2979,VALID,143,VALID,2.36607,
2007-03-11, 03:05:00,VALID,918.441,VALID,0,VALID,72.2729,VALID,843.998,VALID,25.3889,VALID,110,VALID,1.96373,
2007-03-11, 03:06:00,VALID,918.434,VALID,0,VALID,71.3942,VALID,852.743,VALID,25.4052,VALID,143,VALID,2.4295,
2007-03-11, 03:07:00,VALID,918.418,VALID,0,VALID,72.1458,VALID,865.802,VALID,25.3437,VALID,152,VALID,2.68078,
2007-03-11, 03:08:00,VALID,918.415,VALID,0,VALID,71.9843,VALID,852.76,VALID,25.3311,VALID,142,VALID,2.81836,
2007-03-11, 03:09:00,VALID,918.439,VALID,0,VALID,72.5056,VALID,846.257,VALID,25.3142,VALID,107,VALID,2.80952,
2007-03-11, 03:10:00,VALID,918.457,VALID,0,VALID,73.1872,VALID,817.185,VALID,25.2852,VALID,131,VALID,2.42262,
2007-03-11, 03:11:00,VALID,918.469,VALID,0,VALID,71.4476,VALID,792.699,VALID,25.3437,VALID,136,VALID,2.36049,
2007-03-11, 03:12:00,VALID,918.488,VALID,0,VALID,71.3027,VALID,778.096,VALID,25.372,VALID,150,VALID,2.28887,
2007-03-11, 03:13:00,VALID,918.484,VALID,0,VALID,71.5888,VALID,800.646,VALID,25.3451,VALID,172,VALID,2.03143,
2007-03-11, 03:14:00,VALID,918.473,VALID,0,VALID,72.0021,VALID,713.382,VALID,25.4166,VALID,164,VALID,2.52784,
2007-03-11, 03:15:00,VALID,918.461,VALID,0,VALID,72.0745,VALID,278.01,VALID,25.4296,VALID,143,VALID,2.29688,
2007-03-11, 03:16:00,VALID,918.453,VALID,0,VALID,71.8584,VALID,217.066,VALID,25.3093,VALID,152,VALID,2.1726,
2007-03-11, 03:17:00,VALID,918.436,VALID,0,VALID,72.3098,VALID,337.868,VALID,25.1241,VALID,133,VALID,1.6783,
2007-03-11, 03:18:00,VALID,918.436,VALID,0,VALID,72.4687,VALID,498.778,VALID,25.0262,VALID,146,VALID,2.12465,
2007-03-11, 03:19:00,VALID,918.442,VALID,0,VALID,73.1986,VALID,255.256,VALID,24.9255,VALID,101,VALID,2.7487,
2007-03-11, 03:20:00,VALID,918.448,VALID,0,VALID,72.7231,VALID,237.086,VALID,24.7763,VALID,143,VALID,1.88733,
2007-03-11, 03:21:00,VALID,918.41,VALID,0,VALID,72.5438,VALID,342.622,VALID,24.6489,VALID,133,VALID,0.928454,
2007-03-11, 03:26:00,VALID,918.349,VALID,0,VALID,73.9158,VALID,724.997,VALID,24.6293,VALID,74,VALID,2.3552,
2007-03-11, 03:27:00,VALID,918.327,VALID,0,VALID,73.809,VALID,774.869,VALID,24.6977,VALID,81,VALID,3.20739,
2007-03-11, 03:28:00,VALID,918.323,VALID,0,VALID,72.4433,VALID,882.273,VALID,24.7854,VALID,156,VALID,3.80398,
2007-03-11, 03:29:00,VALID,918.294,VALID,0,VALID,72.7027,VALID,858.16,VALID,24.8771,VALID,154,VALID,1.61758,
2007-03-11, 03:30:00,VALID,918.28,VALID,0,VALID,73.1084,VALID,808.237,VALID,25.1377,VALID,111,VALID,2.1479,
2007-03-11, 03:31:00,VALID,918.287,VALID,0,VALID,71.2302,VALID,854.764,VALID,25.2657,VALID,119,VALID,3.02598,
2007-03-11, 03:32:00,VALID,918.263,VALID,0,VALID,70.4393,VALID,867.024,VALID,25.1588,VALID,133,VALID,3.73928,
2007-03-11, 03:33:00,VALID,918.246,VALID,0,VALID,71.0865,VALID,424.792,VALID,24.9537,VALID,156,VALID,3.2936,
2007-03-11, 03:34:00,VALID,918.271,VALID,0,VALID,72.0148,VALID,861.845,VALID,24.9469,VALID,169,VALID,1.54805,
2007-03-11, 03:35:00,VALID,918.226,VALID,0,VALID,71.3396,VALID,781.186,VALID,25.1682,VALID,108,VALID,2.54972,
2007-03-11, 03:36:00,VALID,918.247,VALID,0,VALID,70.8716,VALID,669.486,VALID,25.2332,VALID,160,VALID,2.96148,
2007-03-11, 03:37:00,VALID,918.209,VALID,0,VALID,71.1552,VALID,963.102,VALID,25.2202,VALID,164,VALID,1.88411,
2007-03-11, 03:38:00,VALID,918.196,VALID,0,VALID,70.5194,VALID,552.251,VALID,25.386,VALID,130,VALID,1.49599,
2007-03-11, 03:39:00,VALID,918.167,VALID,0,VALID,71.5901,VALID,313.619,VALID,25.4348,VALID,75,VALID,2.48516,
2007-03-11, 03:40:00,VALID,918.152,VALID,0,VALID,69.7984,VALID,313.857,VALID,25.2498,VALID,95,VALID,2.35865,